• In Austria
  • List of Countries
  • For 7 days
  • Water Temperature
  • Satellite Maps
  • Weather Map
  • News
  • Weather Widgets
  • user-avatar
    Login

    Hourly Weather Yoro

    Today, 22 May, Tuesday

    Time Temperature Precipitation Wind Pressure Humidity
    00:00 +21°C° 0.2 mm 0 mps 698 mmHg 95%
    01:00 +21°C° 0 mm 0 mps 698 mmHg 95%
    02:00 +21°C° 0 mm 0 mps 697 mmHg 96%
    03:00 +20°C° 0 mm 0 mps 697 mmHg 96%
    04:00 +20°C° 0 mm 0 mps 697 mmHg 95%
    05:00 +20°C° 0 mm 0 mps 698 mmHg 94%
    06:00 +21°C° 0 mm 0 mps 698 mmHg 93%
    07:00 +23°C° 0 mm 0 mps 698 mmHg 81%
    08:00 +26°C° 0 mm 0 mps 699 mmHg 70%
    09:00 +29°C° 0 mm 0 mps 700 mmHg 58%
    10:00 +30°C° 0 mm 0 mps 699 mmHg 51%
    11:00 +34°C° 0 mm 1 mps 699 mmHg 44%
    12:00 +35°C° 0 mm 1 mps 699 mmHg 38%
    13:00 +34°C° 0 mm 1 mps 698 mmHg 40%
    14:00 +33°C° 0 mm 1 mps 698 mmHg 42%
    15:00 +34°C° 0 mm 2 mps 697 mmHg 44%
    16:00 +31°C° 0.1 mm 1 mps 697 mmHg 53%
    17:00 +29°C° 0.1 mm 1 mps 697 mmHg 62%
    18:00 +27°C° 0.1 mm 1 mps 697 mmHg 70%
    19:00 +26°C° 1 mm 1 mps 697 mmHg 76%
    20:00 +25°C° 1 mm 1 mps 698 mmHg 82%
    21:00 +24°C° 1 mm 1 mps 698 mmHg 88%
    22:00 +24°C° 0.5 mm 1 mps 698 mmHg 88%
    23:00 +22°C° 0.5 mm 0 mps 698 mmHg 89%

    Tomorrow, 23 May, Wednesday

    Time Temperature Precipitation Wind Pressure Humidity
    00:00 +21°C° 0.5 mm 0 mps 698 mmHg 89%
    01:00 +21°C° 0.1 mm 0 mps 698 mmHg 90%
    02:00 +21°C° 0.1 mm 0 mps 698 mmHg 90%
    03:00 +21°C° 0.1 mm 0 mps 697 mmHg 90%
    04:00 +21°C° 0 mm 0 mps 697 mmHg 90%
    05:00 +21°C° 0 mm 0 mps 698 mmHg 89%
    06:00 +21°C° 0 mm 0 mps 698 mmHg 89%
    07:00 +24°C° 0 mm 0 mps 699 mmHg 78%
    08:00 +26°C° 0 mm 0 mps 699 mmHg 67%
    09:00 +29°C° 0 mm 0 mps 700 mmHg 57%
    10:00 +32°C° 0.2 mm 1 mps 700 mmHg 53%
    11:00 +33°C° 0.2 mm 1 mps 700 mmHg 49%
    12:00 +34°C° 0.2 mm 1 mps 700 mmHg 45%
    13:00 +33°C° 0.4 mm 1 mps 699 mmHg 49%
    14:00 +32°C° 0.4 mm 1 mps 698 mmHg 52%
    15:00 +31°C° 0.4 mm 2 mps 697 mmHg 56%
    16:00 +30°C° 0.9 mm 1 mps 697 mmHg 63%
    17:00 +28°C° 0.9 mm 1 mps 698 mmHg 69%
    18:00 +27°C° 0.9 mm 1 mps 698 mmHg 76%
    19:00 +26°C° 1.3 mm 1 mps 698 mmHg 80%
    20:00 +25°C° 1.3 mm 1 mps 699 mmHg 84%
    21:00 +22°C° 1.3 mm 0 mps 699 mmHg 89%
    22:00 +22°C° 0.5 mm 0 mps 699 mmHg 89%
    23:00 +22°C° 0.5 mm 0 mps 699 mmHg 90%

    Day after tomorrow, 24 May, Thursday

    Time Temperature Precipitation Wind Pressure Humidity
    00:00 +22°C° 0.5 mm 0 mps 699 mmHg 90%
    01:00 +21°C° 0 mm 0 mps 698 mmHg 91%
    02:00 +21°C° 0 mm 0 mps 698 mmHg 91%
    03:00 +21°C° 0 mm 0 mps 698 mmHg 91%
    04:00 +21°C° 0 mm 0 mps 698 mmHg 91%
    05:00 +21°C° 0 mm 0 mps 698 mmHg 90%
    06:00 +21°C° 0 mm 0 mps 698 mmHg 90%
    07:00 +24°C° 0 mm 0 mps 699 mmHg 80%
    08:00 +26°C° 0 mm 0 mps 700 mmHg 71%
    09:00 +28°C° 0 mm 0 mps 701 mmHg 61%
    10:00 +31°C° 0 mm 1 mps 700 mmHg 55%
    11:00 +33°C° 0 mm 1 mps 700 mmHg 49%
    12:00 +34°C° 0 mm 1 mps 700 mmHg 43%
    13:00 +34°C° 0 mm 2 mps 699 mmHg 44%
    14:00 +34°C° 0 mm 2 mps 698 mmHg 46%
    15:00 +34°C° 0 mm 2 mps 698 mmHg 48%
    16:00 +31°C° 0.3 mm 2 mps 698 mmHg 56%
    17:00 +29°C° 0.3 mm 1 mps 698 mmHg 65%
    18:00 +28°C° 0.3 mm 1 mps 698 mmHg 73%
    19:00 +26°C° 0.8 mm 1 mps 698 mmHg 79%
    20:00 +25°C° 0.8 mm 1 mps 699 mmHg 84%
    21:00 +22°C° 0.8 mm 0 mps 699 mmHg 89%
    22:00 +22°C° 0.1 mm 0 mps 699 mmHg 90%
    23:00 +22°C° 0.1 mm 0 mps 699 mmHg 91%

    25 May, Friday

    Time Temperature Precipitation Wind Pressure Humidity
    00:00 +21°C° 0.1 mm 0 mps 699 mmHg 91%
    01:00 +21°C° 0 mm 0 mps 698 mmHg 91%
    02:00 +21°C° 0 mm 0 mps 698 mmHg 91%
    03:00 +21°C° 0 mm 0 mps 697 mmHg 91%
    04:00 +21°C° 0 mm 0 mps 697 mmHg 89%
    05:00 +21°C° 0 mm 0 mps 698 mmHg 88%
    06:00 +21°C° 0 mm 0 mps 698 mmHg 86%
    07:00 +25°C° 0 mm 1 mps 698 mmHg 76%
    08:00 +28°C° 0 mm 1 mps 699 mmHg 67%
    09:00 +30°C° 0 mm 1 mps 700 mmHg 57%
    10:00 +31°C° 0 mm 1 mps 699 mmHg 52%
    11:00 +33°C° 0 mm 1 mps 699 mmHg 46%
    12:00 +35°C° 0 mm 2 mps 698 mmHg 41%
    13:00 +34°C° 0.1 mm 2 mps 698 mmHg 44%
    14:00 +34°C° 0.1 mm 2 mps 697 mmHg 47%
    15:00 +32°C° 0.1 mm 2 mps 696 mmHg 50%
    16:00 +30°C° 0.5 mm 1 mps 696 mmHg 58%
    17:00 +29°C° 0.5 mm 1 mps 697 mmHg 66%
    18:00 +27°C° 0.5 mm 1 mps 697 mmHg 73%
    19:00 +26°C° 0.8 mm 1 mps 697 mmHg 78%
    20:00 +25°C° 0.8 mm 1 mps 697 mmHg 82%
    21:00 +22°C° 0.8 mm 0 mps 698 mmHg 86%
    22:00 +22°C° 0.1 mm 0 mps 698 mmHg 86%
    23:00 +22°C° 0.1 mm 0 mps 697 mmHg 87%

    26 May, Saturday

    Time Temperature Precipitation Wind Pressure Humidity
    00:00 +22°C° 0.1 mm 0 mps 697 mmHg 87%
    01:00 +22°C° 0 mm 0 mps 697 mmHg 87%
    02:00 +21°C° 0 mm 0 mps 696 mmHg 88%
    03:00 +21°C° 0 mm 0 mps 696 mmHg 88%
    04:00 +21°C° 0 mm 0 mps 696 mmHg 88%
    05:00 +21°C° 0 mm 0 mps 697 mmHg 87%
    06:00 +21°C° 0 mm 0 mps 697 mmHg 87%
    07:00 +24°C° 0 mm 0 mps 697 mmHg 77%
    08:00 +27°C° 0 mm 0 mps 698 mmHg 67%
    09:00 +29°C° 0 mm 0 mps 698 mmHg 57%
    10:00 +32°C° 0.1 mm 1 mps 698 mmHg 54%
    11:00 +33°C° 0.1 mm 1 mps 698 mmHg 50%
    12:00 +34°C° 0.1 mm 1 mps 697 mmHg 46%
    13:00 +33°C° 0.5 mm 1 mps 697 mmHg 50%
    14:00 +32°C° 0.5 mm 1 mps 696 mmHg 55%
    15:00 +31°C° 0.5 mm 1 mps 695 mmHg 59%
    16:00 +29°C° 1.5 mm 1 mps 695 mmHg 66%
    17:00 +28°C° 1.5 mm 1 mps 696 mmHg 74%
    18:00 +25°C° 1.5 mm 0 mps 696 mmHg 81%
    19:00 +24°C° 1.8 mm 0 mps 696 mmHg 82%
    20:00 +24°C° 1.8 mm 0 mps 697 mmHg 83%
    21:00 +23°C° 1.8 mm 0 mps 697 mmHg 84%
    22:00 +23°C° 1.3 mm 0 mps 697 mmHg 85%
    23:00 +23°C° 1.3 mm 0 mps 696 mmHg 85%

    27 May, Sunday

    Time Temperature Precipitation Wind Pressure Humidity
    00:00 +25°C° 1.3 mm 1 mps 696 mmHg 86%
    01:00 +25°C° 1 mm 1 mps 696 mmHg 86%
    02:00 +24°C° 1 mm 1 mps 696 mmHg 87%
    03:00 +24°C° 1 mm 1 mps 695 mmHg 88%
    04:00 +24°C° 0.6 mm 1 mps 696 mmHg 88%
    05:00 +22°C° 0.6 mm 0 mps 696 mmHg 88%
    06:00 +22°C° 0.6 mm 0 mps 696 mmHg 88%
    07:00 +24°C° 0.4 mm 0 mps 697 mmHg 81%
    08:00 +26°C° 0.4 mm 0 mps 697 mmHg 73%
    09:00 +28°C° 0.4 mm 0 mps 698 mmHg 65%
    10:00 +29°C° 1 mm 0 mps 698 mmHg 61%
    11:00 +31°C° 1 mm 0 mps 698 mmHg 57%
    12:00 +32°C° 1 mm 0 mps 697 mmHg 53%
    13:00 +33°C° 1.4 mm 1 mps 697 mmHg 57%
    14:00 +32°C° 1.4 mm 1 mps 696 mmHg 61%
    15:00 +31°C° 1.4 mm 1 mps 696 mmHg 64%
    16:00 +30°C° 1.7 mm 1 mps 696 mmHg 71%
    17:00 +28°C° 1.7 mm 1 mps 696 mmHg 77%
    18:00 +25°C° 1.7 mm 0 mps 696 mmHg 84%
    19:00 +24°C° 1.9 mm 0 mps 696 mmHg 85%
    20:00 +26°C° 1.9 mm 1 mps 697 mmHg 86%
    21:00 +25°C° 1.9 mm 1 mps 697 mmHg 88%
    22:00 +25°C° 1.5 mm 1 mps 697 mmHg 88%
    23:00 +25°C° 1.5 mm 1 mps 697 mmHg 89%
    Show more